Regional Weather Roundup
Issued by NWS Charleston, SC

Current Version | Previous Version | Graphics & Text | Print | Product List | Glossary On
Versions: 1 2 3 4 5 6 7 8 9 10 11 12 13 14 15 16 17 18 19 20 21 22 23 24 25 26 27 28 29 30 31 32 33 34 35 36 37 38 39 40 41 42 43 44 45 46 47 48 49 50
000
ASUS42 KCHS 190810
RWRCHS
REGIONAL WEATHER ROUNDUP
NATIONAL WEATHER SERVICE CHARLESTON SC
300 AM EST FRI DEC 19 2014

NOTE: "FAIR" INDICATES FEW OR NO CLOUDS BELOW 12,000 FEET WITH NO
SIGNIFICANT WEATHER AND/OR OBSTRUCTIONS TO VISIBILITY.

NOT ALL STATIONS ARE QUALITY CONTROLLED BY THE NATIONAL
WEATHER SERVICE. USE DATA WITH CAUTION...ESPECIALLY
DEWPOINT OBSERVATIONS.

SCZ027-030-031-034>040-042>050-190900-
...SOUTHEAST SOUTH CAROLINA...

CITY           SKY/WX    TMP DP  RH WIND       PRES   REMARKS
N CHARLESTON   MOCLDY    45  43  93 CALM      30.09F
WATERFRONT PRK   N/A     48 N/A N/A CALM        N/A
MOUNT PLEASANT PTSUNNY   43  43 100 CALM      30.10S
PINOPOLIS        N/A     48  45  87 CALM      30.02R
MONCKS CORNER  FAIR      43  41  93 CALM      30.09S
SUMMERVILLE    NOT AVBL
BEAUFORT MCAS  CLOUDY    48  42  80 SW3       30.10F
BEAUFORT ARPT  FAIR      46  46 100 CALM      30.09F
HILTON HEAD IS CLOUDY    46  45  93 CALM      30.11S
WALTERBORO     CLOUDY    43 N/A N/A CALM      30.09F
ALLENDALE      NOT AVBL

...SOUTHERN MIDLANDS AND PEE DEE...

CITY           SKY/WX    TMP DP  RH WIND       PRES   REMARKS
GEORGETOWN     NOT AVBL
KINGSTREE      NOT AVBL
ORANGEBURG     MOCLDY    40  38  93 CALM      30.08F
BARNWELL         N/A     39  37  93 CALM      30.11R
AIKEN          FAIR      39  37  93 W5        30.11S WCI  36
MANNING        NOT AVBL
COLUMBIA       MOCLDY    37  34  89 S3        30.08F
SUMTER         MOCLDY    38  35  89 E2        30.07S
FLORENCE       MOCLDY    38  34  85 CALM      30.09S
MYRTLE BEACH   MOCLDY    39  36  87 CALM      30.10S
N MYRTLE BEACH PTCLDY    37  35  92 CALM      30.09S

$$

GAZ063-065-086>088-099>101-113>116-118-119-134>141-150-190900-
...SOUTHEAST GEORGIA...

CITY           SKY/WX    TMP DP  RH WIND       PRES   REMARKS
SAVANNAH ARPT  MOCLDY    46  40  79 CALM      30.11S
HUNTER AAF     MOCLDY    46  40  80 W5        30.08F
FORT STEWART   PTCLDY    43  40  88 CALM      30.09F
STATESBORO     MOCLDY    42  42 100 CALM      30.10S
SYLVANIA       PTSUNNY   42  42  99 CALM      30.11S
CLAXTON        FAIR      41  41 100 CALM      30.11S

...CSRA...CENTRAL AND FAR SOUTHEAST GEORGIA...

CITY           SKY/WX    TMP DP  RH WIND       PRES   REMARKS
THOMSON        MOCLDY    44  40  86 CALM      30.14S
AUGUSTA-BUSH   CLOUDY    36  36 100 CALM      30.10S
AUGUSTA-DANIEL CLOUDY    49  36  61 W7        30.10R
SWAINSBORO     FAIR      45  41  87 CALM      30.11S
VIDALIA        MOCLDY    46  37  71 CALM      30.11S
EASTMAN        PTSUNNY   40  40 100 CALM      30.15S
HAZLEHURST     FAIR      44  43  97 CALM      30.11F
ALMA           PTCLDY    48  36  63 NW6       30.12S
WAYCROSS       PTCLDY    46  44  92 CALM      30.12S
JESUP          FAIR      43  41  93 CALM      30.11S
BAXLEY         FAIR      46  37  71 CALM      30.11F
BRUNSWICK      PTCLDY    45  41  87 CALM      30.11F
SAINT SIMONS   PTCLDY    47  42  83 W3        30.10F

$$

SCZ027-028-034-036>038-045-046-048>050-GAZ119-141-190900-
...LAKE AND SUPPLEMENTAL COASTAL OBSERVATIONS...

STATION/POSITION TIME  TEMP    WIND        PRES    WAVE   SWELL
                       AIR SEA DIR/SP/G            HT/PER HT/PER/DIR
                 (UTC) (F)     (DEG/KT/KT) (MB)    (FT/S) (FT/S/D)
UPR LAKE MARION  NOT AVBL
WINYAH BAY       0700   43     280/  2     1018.0S
LAKE MURRAY      0700   47      CALM  /  1 1017.9F
ACE BASIN NERRS  0700   44        CALM     1019.0S
FORT PULASKI     0800   51 56  290/  4/  5 1019.5F
SAPELO ISLAND    0700   50        CALM     1019.0S

$$

ANZ835-935-AMZ111-154-330-350-352-354-370-450-454-472-190900-
...C-MAN AND BUOY OBSERVATIONS...

STATION/POSITION TIME  TEMP    WIND        PRES    WAVE   SWELL
                       AIR SEA DIR/SP/G            HT/PER HT/PER/DIR
                 (UTC) (F)     (DEG/KT/KT) (MB)    (FT/S) (FT/S/D)
BUOY 41004       0800   60 72  320/  6/ 10 1018.6R   2/ 9   2/ 9
BUOY 41008       0800   57 57  310/  8/  8 1019.2S   1/10
FOLLY BEACH CMAN 0700   48     330/  3/  4 1019.7R
CAPERS NEARSHORE 0700   52     330/  2/  4   N/A
FRIPP NEARSHORE  NOT AVBL


STATION/POSITION TIME  TEMP    WIND        PRES    WAVE   SWELL
                       AIR SEA DIR/SP/G            HT/PER HT/PER/DIR
                 (UTC) (F)     (DEG/KT/KT) (MB)    (FT/S) (FT/S/D)
5E ST. MARYS GA  0800      61                N/A     1/ 9
FRYING PAN BUOY  0800   56 65  360/  6/  8 1019.2F   2/10   2/120/10
BUOY 41025       0800   47                 1019.2R   3/ 8
CAPE LOOKOUT NC  0700   48     330/  1/  1 1018.9R
BUOY 41002       0658   69 72  310/  8/ 10 1017.2    3/10   2/110/10
BUOY 41010       0800   69 76  300/  6/ 10 1018.6R   2/10   2/100/10
ST AUGUSTINE FL  0800   51     240/  2/  3 1020.0F


$$



USA.gov is the U.S. government's official web portal to all federal, state and local government web resources and services.